Total_Precipitation_Accumulation
0.60 0.65 0.92 0.73 0.48 0.48 0.54 0.81 0.86 0.72 0.65 0.79 1.60 1.25 1.15 0.82 1.11 1.26 1.10 1.06 1.63 0.90 0.49 0.76 0.58 0.71 0.83 0.89 0.85 0.53 0.65 0.74 1.07 0.65 2.00 2.61 2.67 2.00 1.35 1.13 1.41 1.81 0.37
1.00 0.67 0.74 0.73 0.74 0.65 0.61 0.78 0.77 0.88 0.70 0.81 0.78 0.63 0.79 0.84 0.94 0.90 0.84 0.88 1.88 0.96 0.58 0.44 0.79 0.48 0.67 0.73 0.80 0.85 1.06 0.99 1.25 1.49 1.67 2.37 1.99 1.41 1.65 1.34 1.20 1.13 0.91
1.56 1.00 1.01 1.11 0.90 0.63 0.54 0.80 0.85 0.80 0.74 0.72 1.10 1.13 0.94 0.93 0.75 0.53 0.79 0.90 0.89 0.98 0.68 0.62 0.77 0.60 0.76 0.82 0.95 0.92 0.83 1.23 1.52 1.26 1.21 1.29 1.29 1.06 1.21 1.63 1.44 1.28 0.71
2.79 2.13 1.87 1.79 1.59 1.30 1.10 1.09 0.96 1.29 0.99 0.98 1.32 1.05 0.91 0.75 0.77 0.59 0.99 1.04 0.87 0.84 0.77 0.51 0.72 0.69 1.02 1.44 1.36 1.35 1.29 1.68 1.59 1.58 1.12 1.46 1.24 1.40 1.48 1.96 1.88 1.36 0.60
5.27 5.32 4.17 3.76 3.68 3.15 2.53 2.15 2.19 1.94 1.64 1.42 1.72 1.45 1.25 1.40 1.33 1.30 1.06 1.36 1.36 1.38 0.95 0.77 0.83 1.07 0.99 1.34 1.36 1.54 1.70 1.39 0.96 1.52 1.33 1.60 2.31 1.80 1.44 1.48 1.50 1.77 1.25
3.48 3.90 5.22 6.34 4.85 4.98 4.55 3.61 3.30 2.96 2.76 2.40 2.05 2.37 2.25 1.55 1.94 1.49 1.27 1.23 1.88 2.01 1.58 1.48 1.40 1.92 1.41 1.17 1.01 0.96 1.26 1.46 1.34 1.64 1.39 1.23 1.64 1.67 1.68 1.63 1.73 1.46 1.17
3.05 3.12 3.44 4.18 4.92 4.79 4.81 4.29 4.31 3.89 3.31 2.66 2.86 2.96 2.33 1.94 2.29 1.97 2.17 1.23 1.28 2.15 2.24 2.15 1.83 1.54 1.54 1.60 1.95 1.37 1.06 1.04 0.90 1.09 1.04 1.01 1.19 1.16 1.81 1.87 2.01 1.77 1.46
3.36 3.20 3.25 3.18 3.28 3.38 3.72 4.44 4.53 4.80 4.60 3.92 3.30 2.92 2.83 2.75 2.49 2.14 2.42 1.58 1.48 1.60 1.45 1.57 1.80 1.68 1.79 1.64 1.47 1.02 0.73 0.58 0.82 0.69 0.55 0.70 0.76 0.90 0.87 1.57 2.22 1.92 1.50
2.74 3.00 3.28 3.53 3.31 3.21 3.26 3.24 3.29 3.70 4.05 4.03 4.10 3.63 2.91 2.78 2.67 2.27 2.37 2.14 1.98 1.88 1.70 1.33 1.29 1.40 1.69 1.88 1.31 0.66 0.52 0.53 1.04 1.03 1.05 0.98 1.01 1.43 1.74 2.03 2.21 2.64 1.79
3.19 3.15 3.06 3.32 3.32 3.75 4.41 3.95 3.58 3.28 3.09 3.15 2.58 2.52 2.69 2.66 2.59 2.40 2.24 1.93 1.72 1.60 1.55 1.26 1.35 1.07 1.30 1.24 0.87 0.82 0.60 0.68 1.03 1.21 1.14 1.33 1.37 1.42 1.50 1.94 2.33 2.82 2.75
1.46 2.74 2.64 2.12 2.64 2.99 3.50 3.72 3.57 3.65 3.50 3.55 3.43 2.69 2.40 2.28 2.41 2.58 2.37 1.71 1.66 1.70 1.28 1.12 1.07 1.49 1.21 1.13 1.14 1.05 0.99 1.40 1.91 1.98 2.02 1.53 1.03 0.92 1.39 2.05 2.45 3.18 3.58
1.00 0.99 1.86 1.92 1.81 2.07 3.51 4.57 4.69 4.92 6.14 5.98 5.25 3.50 2.53 1.96 1.86 1.61 1.51 1.61 2.06 1.84 1.50 1.23 1.15 1.32 1.29 1.30 1.55 2.15 2.49 2.69 2.27 1.73 1.43 1.21 1.21 1.22 1.68 2.23 2.38 2.75 3.18
0.69 1.04 1.30 1.87 2.02 2.70 3.03 3.51 4.34 4.90 6.11 5.63 4.95 3.72 2.66 2.35 2.37 2.22 1.70 1.54 1.67 1.65 1.56 1.57 1.67 1.76 2.18 2.57 2.72 2.99 2.94 2.79 3.08 2.96 2.36 1.88 1.83 2.18 2.56 2.58 2.83 3.51 4.28
1.46 1.16 1.09 1.32 1.69 1.65 1.97 2.62 2.78 2.68 3.58 3.83 3.40 3.28 2.50 2.19 1.89 1.58 1.99 2.44 2.37 2.29 2.80 3.23 3.57 3.85 3.92 3.33 2.73 2.51 2.49 2.89 2.64 2.53 2.29 2.19 2.07 2.46 2.96 3.95 4.53 3.96 2.59
1.00 1.08 1.18 1.34 1.48 2.50 2.81 3.01 2.72 2.83 3.18 3.46 3.59 3.02 2.65 2.14 2.27 2.53 2.51 2.68 3.64 4.26 3.95 3.20 2.70 2.30 2.00 1.97 2.17 2.13 2.15 2.25 2.51 2.46 2.60 2.71 2.91 3.57 4.36 3.98 3.21 2.34 1.64
1.66 1.71 1.84 2.16 2.24 2.55 2.56 2.57 3.04 3.88 4.08 4.06 3.44 2.75 2.43 2.41 2.46 2.52 2.94 3.36 3.61 3.43 2.83 2.28 1.83 1.63 1.64 1.55 1.40 1.45 1.57 1.77 1.79 2.22 2.57 3.14 4.11 4.24 3.39 2.77 2.36 2.49 2.44
1.43 1.66 1.81 1.99 2.13 2.51 2.41 2.55 2.64 2.87 2.85 2.65 2.83 2.58 2.19 2.25 2.19 2.06 1.88 1.64 1.73 2.04 1.89 1.98 1.99 1.88 1.63 1.45 1.30 1.15 1.06 1.21 1.39 1.64 1.91 2.24 2.47 2.57 2.44 2.05 2.40 2.25 2.53
1.17 1.32 1.22 1.15 1.13 1.13 1.01 1.17 1.38 1.55 1.60 1.80 1.97 1.86 1.99 2.03 1.96 1.86 1.67 1.42 0.97 1.01 0.88 0.89 1.01 1.23 1.41 1.42 1.34 1.33 1.32 1.31 1.55 2.15 2.69 2.72 2.87 2.96 3.02 2.72 2.03 1.71 1.93
1.19 1.06 0.97 0.85 0.90 0.76 0.54 0.52 0.52 0.73 0.60 0.65 0.83 0.99 1.24 1.68 1.67 1.76 1.78 1.06 0.97 0.95 0.95 0.83 0.78 0.87 1.01 1.10 1.18 1.21 1.20 1.28 1.28 1.12 1.26 1.85 2.17 2.08 2.30 2.27 2.19 2.28 2.07
0.81 0.85 0.70 0.72 0.62 0.46 0.45 0.61 0.77 0.67 0.70 0.72 0.76 0.84 0.88 0.96 1.03 1.13 1.15 1.21 1.07 0.87 1.04 1.08 0.98 0.84 0.90 0.90 1.09 1.22 1.33 1.70 1.84 1.74 1.43 1.19 1.00 0.95 1.00 1.20 1.36 1.51 1.80
0.41 0.59 0.77 0.66 0.62 0.59 0.67 0.56 0.44 0.38 0.51 0.62 0.71 0.81 1.15 0.87 0.83 0.87 0.70 0.62 0.65 0.92 1.04 0.96 0.89 0.92 0.90 0.79 0.81 0.92 1.00 1.08 1.26 1.38 1.49 1.50 1.42 1.27 1.30 1.25 1.18 1.20 1.37
0.16 0.24 0.29 0.47 0.50 0.49 0.47 0.44 0.43 0.36 0.28 0.32 0.34 0.35 0.60 0.79 0.79 0.77 0.69 0.45 0.49 0.60 0.60 0.70 0.79 0.83 0.83 0.87 0.88 0.81 0.66 0.58 0.62 0.71 0.63 0.66 0.72 0.67 0.64 0.62 0.64 0.77 1.01
0.28 0.30 0.24 0.22 0.46 0.67 0.67 0.57 0.42 0.28 0.21 0.20 0.30 0.23 0.14 0.10 0.15 0.26 0.36 0.37 0.36 0.49 0.56 0.57 0.60 0.60 0.61 0.54 0.41 0.42 0.45 0.45 0.60 0.56 0.51 0.54 0.65 0.69 0.74 0.78 0.84 0.82 0.91
0.38 0.40 0.32 0.27 0.38 0.50 0.78 0.93 0.98 0.88 0.60 0.39 0.25 0.29 0.26 0.23 0.21 0.20 0.19 0.19 0.20 0.26 0.37 0.45 0.50 0.46 0.39 0.37 0.33 0.28 0.27 0.29 0.32 0.38 0.41 0.44 0.48 0.64 0.62 0.63 0.67 0.71 0.70
0.41 0.51 0.50 0.31 0.37 0.40 0.45 0.53 0.79 1.16 1.52 1.40 1.15 0.90 0.79 0.74 0.63 0.55 0.50 0.38 0.26 0.21 0.25 0.26 0.27 0.25 0.23 0.24 0.22 0.17 0.21 0.25 0.22 0.21 0.20 0.20 0.21 0.23 0.24 0.28 0.33 0.36 0.35
0.44 0.41 0.54 0.56 0.49 0.63 0.88 0.77 0.70 0.58 0.63 0.96 0.97 0.87 0.89 0.92 0.91 0.89 0.91 0.87 0.84 0.79 0.70 0.60 0.51 0.45 0.37 0.31 0.31 0.38 0.38 0.32 0.30 0.29 0.21 0.16 0.16 0.15 0.17 0.19 0.22 0.26 0.25